Home   Weather   Antwerp   Past weeks

Flag for Belgium Past Weather in Antwerp, Belgium — Yesterday and Last 2 Weeks

Now
73 °F

Passing clouds.


Feels Like: 77 °F
Forecast: 54 / 76 °F
Wind: 3 mph from Southeast

Location: Antwerp / Deurne

Current Time: Aug 30, 2016 at 3:10:53 PM

Latest Report: Aug 30, 2016 at 2:20 PM


Visibility: N/A

Pressure: 30.30 "Hg

Humidity: 44%

Dew Point: 50 °F

Location of AntwerpLocation

Past Weather in Antwerp — Graph

°F

Antwerp Temperature Yesterday

Maximum temperature yesterday: 72 °F (at 2:50 PM)
Minimum temperature yesterday: 61 °F (at 11:20 PM)
Average temperature yesterday: 66 °F

High & Low Weather Summary for the Past Weeks

 TemperatureHumidityPressure
High91 °F (Aug 24, 4:50 PM)94% (Aug 30, 6:50 AM)30.33 "Hg (Aug 30, 6:50 AM)
Low50 °F (Aug 30, 6:50 AM)33% (Aug 24, 5:50 PM)29.77 "Hg (Aug 19, 1:20 PM)
Average69 °F67%30.03 "Hg
* Reported Aug 15 1:20 PM — Aug 30 1:50 PM, Antwerp, Weather by CustomWeather, © 2016

Note: Actual official high and low records may vary slightly from our data, if they occured in-between our weather recording intervals... More about our weather records

Advertising

Antwerp Weather History for the Previous 24 Hours

Scroll right to see more
 ConditionsComfort  
Time TempWeatherWind HumidityBarometerVisibility
1:50 PM
Tue, Aug 30
72 °FSunny.5 mph47%30.30 "Hg10 mi
1:20 PM72 °FPassing clouds.6 mph47%30.30 "HgN/A
12:50 PM72 °FPassing clouds.5 mph47%30.30 "HgN/A
12:20 PM70 °FPassing clouds.5 mph50%30.33 "HgN/A
11:50 AM68 °FPassing clouds.3 mph56%30.33 "HgN/A
11:20 AM68 °FSunny.2 mph64%30.33 "Hg10 mi
10:50 AM66 °FPassing clouds.3 mph64%30.33 "HgN/A
10:20 AM66 °FSunny.2 mph68%30.33 "Hg10 mi
9:50 AM63 °FSunny.2 mph77%30.33 "Hg10 mi
9:20 AM61 °FSunny.2 mph83%30.30 "Hg10 mi
8:50 AM59 °FSunny.2 mph82%30.30 "Hg10 mi
8:20 AM57 °FSunny.1 mph82%30.30 "Hg10 mi
7:50 AM54 °FClear.2 mph88%30.30 "Hg10 mi
7:20 AM50 °FFog.1 mph88%30.30 "HgN/A
6:50 AM50 °FFog.2 mph94%30.27 "HgN/A
6:20 AM52 °FFog.1 mph88%30.27 "HgN/A
5:50 AM52 °FClear.1 mph88%30.30 "HgN/A
5:20 AM52 °FClear.1 mph88%30.27 "Hg10 mi
4:50 AM52 °FClear.No wind88%30.27 "Hg10 mi
4:20 AM54 °FClear.No wind82%30.27 "Hg10 mi
3:50 AM54 °FClear.1 mph88%30.27 "Hg10 mi
3:20 AM54 °FClear.1 mph88%30.27 "Hg10 mi
2:50 AM54 °FClear.No wind88%30.27 "Hg10 mi
2:20 AM57 °FClear.1 mph82%30.27 "Hg10 mi
1:50 AM57 °FClear.1 mph82%30.27 "Hg10 mi
1:20 AM57 °FClear.2 mph82%30.27 "Hg10 mi
12:50 AM59 °FClear.2 mph82%30.27 "Hg10 mi
12:20 AM59 °FClear.2 mph82%30.27 "Hg10 mi
11:50 PM
Mon, Aug 29
61 °FClear.3 mph77%30.27 "Hg10 mi
11:20 PM61 °FPassing clouds.5 mph77%30.27 "HgN/A
10:50 PM63 °FClear.6 mph73%30.27 "Hg10 mi
10:20 PM63 °FClear.5 mph73%30.24 "Hg10 mi
9:50 PM64 °FPassing clouds.8 mph68%30.24 "HgN/A
9:20 PM64 °FSunny.7 mph68%30.21 "Hg10 mi
8:50 PM64 °FSunny.8 mph68%30.21 "Hg10 mi
8:20 PM66 °FPassing clouds.9 mph64%30.21 "HgN/A
7:50 PM66 °FPassing clouds.9 mph64%30.21 "HgN/A
7:20 PM68 °FPassing clouds.10 mph64%30.18 "HgN/A
6:50 PM68 °FPassing clouds.10 mph64%30.18 "HgN/A
6:20 PM70 °FPassing clouds.9 mph57%30.18 "HgN/A
5:50 PM72 °FPassing clouds.13 mph57%30.18 "HgN/A
5:20 PM70 °FPassing clouds.10 mph57%30.15 "HgN/A
4:50 PM72 °FPassing clouds.9 mph53%30.15 "HgN/A
4:20 PM72 °FPassing clouds.7 mph53%30.15 "HgN/A
3:50 PM72 °FPassing clouds.10 mph53%30.15 "HgN/A
3:20 PM72 °FPassing clouds.12 mph53%30.15 "HgN/A
Weather by CustomWeather, © 2016

See weather overviewHow to use our weather pages